User: anonymous
Location: Unspecified
(0.0000°N, 0.0000°E)
Time: 00:54:41
(UTC+02:00)
Language:

Timation 2 Rocket - Orbit

View from above orbital plane
View from above orbital plane
View from above satellite
View from above satellite

Ground track
Ground track

The orbit data is extracted from the following two-line orbital elements,

1 04159U 69082AB  14210.42186538  .00000029  00000-0  83362-4 0  6487
2 04159 069.9630 165.5882 0117623 320.2675 038.9845 13.72239380243503
Epoch (UTC): 29 July 2014 10:07:29
Eccentricity: 0.0117623
inclination: 69.9630°
perigee height: 905 km
apogee height: 1078 km
right ascension of ascending node: 165.5882°
argument of perigee: 320.2675°
revolutions per day: 13.72239380
mean anomaly at epoch: 38.9845°
orbit number at epoch: 24350

The dashed part of the orbit path shows where the satellite is in the earth's shadow,  

DLR